NOAA 16 DEB, 41065

Orbit data source: Space-Track

NOAA 16 DEB, 41065 is space debris in SSO originally from a launch on Thu, 21 Sep 2000 UTC launched from the Air Force Western Test Range (AFWTR). Debris objects in space refer to the collection of defunct objects orbiting the Earth. Examples of debris include non-operational satellites, rocket bodies, and fragments generated from explosions, collisions, or faulty payload assembly.

Loading next visibility...
Identifier
41065, 2000-055Y
Orbit
SSO
Country
Flag of USUS
Related business
Manufacturer
Unknown
Mission
Spacecraft
Bus & Motor
Unknown
Mass
Unknown
Launch date (UTC)
2000-09-21 (26 years ago)
Launch vehicle
Unknown
Launch site
Air Force Western Test Range (AFWTR)
Object type
Payload
Rocket body
Debris
Shape & HBR
Unknown shape, 0.1 m
Radar Cross Section
Medium (>0.1 m² and <1 m²)

Expand to show TLE details & history
Last TLE update: 19 hours ago

TLE from 19 hours ago
0 NOAA 16 DEB
1 41065U 00055Y   26255.11793665  .00001385  00000-0  64021-3 0  9997
2 41065  98.6237 305.1326 0011986 190.9206 169.1714 14.22449565557036
Epoch: 2026-09-12T02:49Z
TLE epoch observation values (Epoch: 2026-09-12T02:49:49.726Z)
Latitude
0.00001°
Longitude
-88.45613°
Altitude
828.474 km
Speed
7.434 km/s
True Right ascension
20h 20m 31s
True Declination
0° 00' 00"
Sunlit
Object was in full shadow at epoch
Visualization orbit readout
Latitude
Unknown
Longitude
Unknown
Altitude
Unknown
Speed
Unknown
Apparent Right ascension
Unknown
Apparent Declination
Unknown
Sunlit
N/A
Visualization observer readout
Local Sidereal Time
14:34:19
Azimuth
Unknown
Elevation
Unknown
Doppler factor
Unknown
Orbital elements
Apogee altitude
822.852 km
Perigee altitude
805.611 km
Semi-major axis
7,192.369 km
Eccentricity
0.0012
Inclination
98.6237°
RAAN
305.1326°
Arg. of periapsis
190.9206°
True anomaly
169.19717°
Mean anomaly
169.1714°
Eccentric anomaly
169.18429°
Mean motion
3.55824 °/min
Orbital period
101.17 mins
BSTAR
0.00064021
Loading maneuver chart data...
Computing Atmospheric mass density...
Loading historical data...
Loading historical data...
Loading historical data...
Loading historical data...
Loading historical data...
Loading historical data...
Loading historical data...

Documentation

Showing up to 5 results
|